Berlin, NH

1:18 AM EDT on March 27, 2017 (GMT -0400)
Berlin Municipal

Weather History for KBML - April, 2013

Change the Weather History Date:

Thursday, April 25, 2013

  Actual Average Record
Temperature  
Mean Temperature 44 °F -  
Max Temperature 60 °F 53 °F 68 °F (2008)
Min Temperature 28 °F 25 °F 19 °F (1999)
Degree Days  
Heating Degree Days 21    
Moisture  
Dew Point 31 °F    
Average Humidity 54    
Maximum Humidity 81    
Minimum Humidity 29    
Precipitation  
Precipitation 0.00 in - - ()
Sea Level Pressure  
Sea Level Pressure 30.03 in    
Wind  
Wind Speed 8 mph (West)    
Max Wind Speed 15 mph    
Max Gust Speed 28 mph    
Visibility 10 miles    
Events Rain    
Averages and records for this station are not official NWS values.
T = Trace of Precipitation, MM = Missing Value Source: NWS Daily Summary

Daily Weather History Graph

Daily Weather History Graph

Search for Another Location

Airport or City:

Trip Planner

Search our weather history database for the weather conditions in past years. The results will help you decide how hot, cold, wet, or windy it might be!

Date:

Astronomy

Apr. 25, 2013 Rise Set
Actual Time 5:43 AM EDT 7:42 PM EDT
Civil Twilight 5:12 AM EDT 8:13 PM EDT
Nautical Twilight 4:33 AM EDT 8:52 PM EDT
Astronomical Twilight 3:51 AM EDT 9:34 PM EDT
Moon 7:53 PM EDT (4/25) 5:25 AM EDT (4/25)
Length of Visible Light 15h 01m
Length of Day
13h 58m
Full, 100% of the Moon is Illuminated
Apr 25
Full
Apr 25
Full
May 2
Last Quarter
May 9
New
May 18
First Quarter

Hourly Weather History & Observations

Time (EDT) Temp. Windchill Dew Point Humidity Pressure Visibility Wind Dir Wind Speed Gust Speed Precip Events Conditions
12:52 AM 60.1 °F - 45.0 °F 57% 29.68 in 10.0 mi SSE 9.2 mph - N/A   Overcast
1:52 AM 55.9 °F - 46.9 °F 72% 29.67 in 10.0 mi South 3.5 mph - 0.00 in   Scattered Clouds
2:52 AM 57.9 °F - 46.9 °F 67% 29.70 in 10.0 mi Variable 6.9 mph - 0.00 in Rain Light Rain
3:52 AM 59.0 °F - 46.9 °F 64% 29.72 in 10.0 mi South 5.8 mph - 0.00 in   Overcast
4:52 AM 52.0 °F - 42.1 °F 69% 29.80 in 10.0 mi NW 11.5 mph 21.9 mph 0.00 in   Overcast
5:09 AM 50.0 °F - 39.2 °F 66% 29.83 in 10.0 mi NW 13.8 mph 24.2 mph N/A   Overcast
5:52 AM 48.0 °F - 35.1 °F 61% 29.88 in 10.0 mi NW 10.4 mph 23.0 mph N/A   Overcast
6:52 AM 46.0 °F 40.6 °F 32.0 °F 58% 29.93 in 10.0 mi West 11.5 mph 21.9 mph N/A   Mostly Cloudy
7:52 AM 46.0 °F 39.6 °F 30.0 °F 54% 29.98 in 10.0 mi WNW 15.0 mph 27.6 mph N/A   Partly Cloudy
8:52 AM 44.1 °F 40.1 °F 28.0 °F 53% 30.01 in 10.0 mi Variable 6.9 mph 18.4 mph N/A   Mostly Cloudy
9:52 AM 44.1 °F 39.5 °F 30.9 °F 60% 30.05 in 10.0 mi West 8.1 mph 16.1 mph N/A   Overcast
10:52 AM 48.0 °F - 28.9 °F 48% 30.07 in 10.0 mi NW 10.4 mph 23.0 mph 0.00 in   Scattered Clouds
11:52 AM 50.0 °F - 28.9 °F 44% 30.09 in 10.0 mi NW 12.7 mph 23.0 mph N/A   Scattered Clouds
12:52 PM 51.1 °F - 27.0 °F 39% 30.10 in 10.0 mi West 9.2 mph 23.0 mph N/A   Partly Cloudy
1:52 PM 52.0 °F - 27.0 °F 38% 30.12 in 10.0 mi WNW 8.1 mph 17.3 mph N/A   Clear
2:52 PM 52.0 °F - 27.0 °F 38% 30.13 in 10.0 mi WNW 9.2 mph 17.3 mph N/A   Partly Cloudy
3:52 PM 53.1 °F - 24.1 °F 32% 30.13 in 10.0 mi West 10.4 mph - N/A   Clear
4:52 PM 53.1 °F - 21.9 °F 30% 30.15 in 10.0 mi West 6.9 mph - N/A   Clear
5:52 PM 52.0 °F - 21.0 °F 30% 30.17 in 10.0 mi West 5.8 mph - N/A   Clear
6:52 PM 51.1 °F - 19.9 °F 29% 30.19 in 10.0 mi West 5.8 mph - N/A   Clear
7:52 PM 45.0 °F - 23.0 °F 42% 30.22 in 10.0 mi Calm Calm - N/A   Clear
8:52 PM 34.0 °F - 26.1 °F 73% 30.27 in 10.0 mi Calm Calm - N/A   Clear
9:52 PM 30.9 °F - 24.1 °F 76% 30.30 in 10.0 mi Calm Calm - N/A   Clear
10:52 PM 28.9 °F - 23.0 °F 78% 30.32 in 10.0 mi Calm Calm - N/A   Clear
11:52 PM 28.0 °F - 23.0 °F 81% 30.35 in 10.0 mi Calm Calm - N/A   Clear